Theta_e
330 322 318 317 323 318 314 309 296 300 291 290 288 288 290 296 297 295 295 298 296 300 302 302 300 302 300 300 304 306 306 301 303 293 295 309 324 329 331 332 338 344 345 347 348 349 350 350 352 352 353 352 352 351 351 350 350 349 349 348 348 349 349 348 348 348 347 348 348 349 349 349 349 349 350 349 349 348 348 346 346 346 346 346 346 347 347 345 344 342 341 339 337 335 335 335 336
325 318 317 319 316 316 306 304 296 290 288 286 289 288 293 296 296 294 294 297 299 301 301 300 301 301 301 302 304 309 307 309 312 313 319 325 326 326 329 331 336 344 345 347 349 349 349 349 350 353 352 352 352 351 351 350 350 349 349 348 349 348 348 348 347 347 347 347 348 348 348 349 349 349 349 349 348 348 348 347 346 346 346 346 346 347 346 344 343 341 340 338 336 334 333 334 335
324 321 319 316 315 312 309 302 295 287 284 282 287 289 294 294 293 295 297 298 301 301 301 300 301 302 303 303 303 302 299 311 314 318 318 325 320 320 329 332 334 346 346 348 349 349 349 347 347 352 351 352 352 352 351 350 350 349 348 348 348 348 348 347 347 347 347 347 348 348 348 348 348 348 348 347 347 347 348 347 346 345 346 345 346 346 345 343 342 340 339 337 335 332 333 335 336
326 322 318 313 307 307 301 298 293 288 286 283 286 292 292 292 294 296 298 300 300 299 301 301 298 302 302 300 301 303 303 308 315 315 318 321 319 325 328 333 333 341 345 347 349 349 348 346 347 351 351 351 351 351 351 351 350 349 349 349 349 348 348 347 347 347 347 347 347 347 346 347 348 348 348 348 347 346 346 347 345 345 345 346 346 346 344 342 341 339 337 336 334 331 333 335 336
319 322 320 312 309 303 300 298 292 287 287 286 285 292 293 294 295 297 299 299 298 298 300 301 298 303 304 303 305 299 301 307 316 323 322 323 327 329 331 333 333 343 343 345 347 348 348 345 347 350 352 351 351 350 351 351 350 349 350 350 348 348 347 346 346 346 346 347 347 347 347 347 347 347 348 348 347 346 345 344 344 344 344 344 346 345 343 342 340 337 335 335 332 331 333 335 335
317 319 320 313 305 307 299 289 290 288 292 290 289 291 293 295 296 296 297 298 299 299 301 298 298 300 302 304 307 302 312 302 313 323 322 323 328 331 335 332 329 339 342 344 347 348 348 344 346 350 351 351 351 350 351 350 350 349 350 349 348 348 347 346 346 346 346 346 347 346 346 346 347 347 348 348 347 346 345 345 344 344 344 344 344 345 344 342 339 336 334 332 331 332 333 334 334
314 310 312 308 308 306 296 290 289 290 293 293 292 292 295 295 297 297 297 298 299 298 299 300 303 302 301 305 307 315 319 319 319 322 324 326 328 331 334 334 329 336 341 343 346 347 347 345 349 351 350 350 350 350 351 350 350 349 350 349 348 348 347 346 346 346 346 346 346 347 347 347 346 347 347 347 346 345 345 344 344 343 344 344 343 343 342 340 338 335 333 331 331 333 333 333 333
318 306 307 299 299 295 292 291 291 289 294 295 295 295 296 296 296 297 296 295 297 296 299 299 298 297 298 304 301 314 318 322 323 326 327 327 329 331 334 334 334 341 346 346 346 345 345 344 349 350 350 351 350 350 350 350 350 350 350 349 348 348 347 346 346 346 347 346 347 348 347 347 347 347 346 346 345 344 344 344 344 343 343 342 341 341 340 339 337 335 332 331 330 331 332 332 332
314 309 306 299 295 293 289 290 291 294 295 296 296 301 304 298 298 296 296 297 298 298 298 299 297 296 298 301 300 310 315 318 322 328 329 328 329 330 334 334 337 342 344 345 345 345 345 342 346 349 349 350 348 349 349 349 349 350 349 349 348 348 347 346 345 346 346 346 347 347 347 347 346 346 346 346 344 344 343 343 343 343 342 342 340 339 338 337 336 333 331 330 330 331 331 331 332
305 303 296 298 296 292 290 290 288 293 293 296 296 298 299 299 299 297 296 297 297 297 299 299 298 298 300 298 299 301 304 312 319 321 325 327 328 331 332 333 334 338 343 344 344 344 343 344 343 346 347 349 349 349 349 349 348 348 349 348 348 348 347 347 346 346 345 346 347 346 346 345 345 345 345 345 345 344 343 343 343 343 342 341 340 338 337 336 334 332 330 328 329 330 330 330 331
301 302 300 292 289 288 289 290 291 294 294 297 297 299 300 299 299 298 298 298 298 298 299 299 298 298 299 299 298 306 307 307 314 315 322 328 327 329 330 330 332 333 337 342 343 342 342 341 341 342 344 346 348 349 349 348 348 348 349 349 349 348 348 347 348 346 346 346 346 346 346 346 345 345 344 343 343 343 343 342 342 342 341 339 338 337 336 335 333 330 327 325 326 328 328 329 329
297 296 295 290 291 289 290 290 292 293 295 296 296 299 298 300 298 297 297 297 298 297 298 299 298 299 297 298 299 302 307 305 308 313 319 328 329 329 329 329 331 332 332 334 341 341 340 340 341 341 339 342 342 345 346 346 347 348 349 349 348 348 348 347 347 347 346 346 346 346 345 345 345 344 344 343 343 343 342 342 341 341 340 339 337 336 335 333 331 327 323 322 323 325 326 326 326
301 296 291 289 289 288 290 290 290 292 292 294 294 299 298 298 297 298 297 297 297 297 298 301 301 299 296 299 300 304 304 304 307 313 318 326 328 329 329 329 329 330 331 331 338 338 338 338 341 344 339 335 337 339 340 342 344 346 347 347 348 348 348 348 347 347 347 346 346 346 346 345 344 344 344 343 343 342 342 341 340 340 339 338 337 335 334 333 330 325 322 320 320 322 323 324 325
300 299 293 292 290 289 289 291 291 289 290 295 296 299 300 298 299 298 297 297 297 297 301 303 300 300 298 299 300 299 301 304 306 312 318 326 328 329 327 326 326 327 329 331 330 331 332 336 339 341 341 345 343 337 334 338 340 343 344 344 345 345 346 347 346 346 346 346 344 342 341 341 342 343 343 343 342 341 341 341 340 339 338 337 336 335 334 332 329 325 322 320 319 320 319 321 323
301 300 295 292 288 287 292 289 291 288 290 294 298 298 299 301 299 297 298 295 299 301 303 302 303 299 294 297 296 300 302 305 307 310 321 323 327 328 326 325 326 326 327 329 329 330 330 331 335 339 338 343 343 343 342 339 335 339 340 340 341 343 344 342 342 343 341 340 340 337 337 336 335 336 337 337 338 336 336 334 337 338 338 337 336 334 333 331 328 325 324 322 320 318 318 320 321
304 300 294 291 288 286 289 291 290 290 292 294 298 296 297 299 300 298 301 299 300 304 300 299 301 299 299 299 301 302 304 306 309 312 320 320 323 325 324 324 325 324 319 321 326 327 328 330 329 333 339 338 340 341 342 342 333 334 337 337 339 341 340 339 339 337 332 331 331 330 327 328 329 330 328 332 332 334 332 331 334 338 337 336 335 334 332 330 329 326 324 323 321 318 317 318 319
303 296 290 287 288 286 290 291 288 288 293 296 299 299 297 297 300 301 302 301 299 299 300 301 300 303 300 301 303 305 308 311 312 311 311 311 312 308 309 310 311 313 315 315 315 317 318 320 327 330 331 334 338 340 341 341 337 331 333 332 333 334 336 335 335 326 322 321 323 321 323 333 334 332 331 331 325 331 325 326 332 336 337 336 335 333 332 330 328 326 325 323 321 320 319 317 315
302 294 289 287 290 289 293 295 294 293 294 295 298 298 296 296 299 300 301 299 298 299 300 301 303 302 302 304 305 307 309 310 310 309 308 307 306 306 307 308 310 310 311 313 315 316 316 316 318 318 320 327 334 337 342 342 337 336 339 339 337 333 330 329 332 333 330 330 322 326 334 335 334 335 334 329 329 329 326 324 327 332 335 334 333 333 332 330 329 328 326 324 322 321 318 305 305
298 293 288 289 290 294 295 296 296 295 295 296 298 296 296 297 297 299 296 296 297 297 298 299 299 300 302 303 304 307 308 308 308 308 307 306 306 306 306 307 309 310 311 312 313 315 315 316 317 318 318 319 329 334 339 342 339 340 340 338 338 332 332 329 335 334 336 335 334 334 334 336 335 335 333 331 332 325 328 323 326 330 333 332 332 332 332 330 329 328 327 327 324 321 310 306 304
299 292 289 290 294 295 297 297 297 297 297 297 297 298 296 299 298 300 297 295 295 295 296 298 298 298 300 302 304 305 306 306 307 307 306 306 306 305 306 306 307 308 310 310 311 314 315 315 316 317 317 317 321 332 334 341 340 339 339 339 336 336 334 334 335 336 336 337 336 336 335 335 335 335 329 325 326 331 327 322 324 324 326 327 326 328 329 330 330 328 327 324 318 314 311 309 306
299 292 291 293 294 294 296 298 298 297 297 296 296 297 296 298 298 298 296 296 295 296 297 297 298 299 300 301 302 304 305 304 305 305 306 306 306 306 306 306 306 308 308 309 311 312 313 315 315 316 317 316 316 326 330 330 338 339 339 339 338 337 336 336 334 333 334 333 333 333 334 333 332 331 332 332 331 331 329 328 328 327 327 326 324 327 326 324 320 317 316 314 313 312 311 310 308
296 295 294 295 294 294 298 298 298 297 296 296 296 296 296 300 299 297 297 293 292 295 298 298 299 300 300 301 302 303 303 303 303 304 304 305 305 305 306 306 308 308 309 309 310 311 313 314 315 316 317 317 316 319 329 329 332 333 337 338 337 336 335 334 335 335 334 335 334 332 331 330 330 331 331 330 330 330 328 327 326 328 328 328 328 327 326 322 318 318 316 315 312 311 310 309 307
293 295 297 296 297 296 298 299 298 296 298 296 296 298 299 297 297 297 296 295 296 299 299 299 300 300 301 302 302 302 302 302 303 303 303 304 304 304 305 306 306 307 307 309 311 311 312 313 314 315 316 317 315 317 328 329 332 331 330 331 334 333 335 334 333 332 331 330 330 331 331 329 329 328 331 331 330 329 327 326 327 328 327 327 327 328 325 321 318 316 315 313 311 310 309 307 307
294 293 296 298 297 299 299 299 298 296 296 298 298 299 298 297 297 297 297 298 298 299 299 299 300 301 302 301 301 301 302 302 303 303 304 304 304 304 305 305 307 309 309 310 311 312 311 311 313 314 318 316 314 317 326 330 329 327 327 328 330 329 330 330 329 329 328 326 326 327 328 331 329 328 329 329 329 329 327 327 327 328 329 327 326 327 324 323 320 318 315 312 312 311 311 308 308
295 295 297 298 298 298 297 296 297 297 297 296 298 298 296 296 296 297 296 298 298 299 299 299 299 300 299 300 300 301 301 301 303 303 303 303 304 305 304 304 306 308 308 308 309 310 310 312 314 319 320 317 314 321 327 327 326 325 325 325 325 324 327 327 327 326 325 324 324 323 323 326 328 329 327 328 329 327 327 329 329 328 327 326 326 324 324 322 320 317 316 312 312 311 310 310 308
298 298 297 297 297 299 297 297 297 297 298 298 298 295 295 296 297 296 297 298 298 299 299 299 299 298 298 298 299 299 300 300 301 301 301 301 302 302 302 304 305 306 307 308 308 310 312 314 319 320 322 323 324 325 324 324 323 323 323 323 322 322 323 324 324 323 322 323 322 323 323 324 324 325 324 324 323 323 323 323 323 323 323 324 324 322 321 320 318 318 317 313 312 311 311 309 309
297 296 296 297 297 296 297 298 297 297 298 296 296 295 295 296 296 291 297 298 298 298 298 298 298 297 298 298 298 299 299 299 300 300 300 300 300 300 302 303 303 305 306 307 308 310 312 317 318 319 321 320 321 321 322 322 322 321 320 320 320 320 320 320 320 320 320 320 320 321 322 321 322 322 322 322 321 320 320 319 320 321 320 321 321 320 319 319 319 318 317 316 315 312 311 310 311
297 297 295 296 296 296 296 296 297 296 297 296 297 294 295 295 296 293 296 298 298 298 297 297 297 297 297 298 298 298 299 299 299 299 299 299 298 299 301 302 302 304 305 306 308 310 313 315 315 316 319 318 319 318 318 319 318 318 317 316 315 315 316 315 314 314 313 315 317 319 320 320 319 319 319 318 318 318 317 317 317 317 317 319 320 320 320 320 319 318 318 319 317 314 312 311 312
297 297 294 292 294 296 295 296 297 297 296 296 297 295 292 293 292 294 297 298 297 297 297 296 296 296 296 297 297 297 297 298 298 298 298 299 299 301 302 303 303 303 305 307 308 310 311 313 313 312 314 315 315 314 314 314 314 313 312 312 311 311 310 309 309 309 308 309 310 312 314 316 317 316 316 316 314 315 315 314 313 313 314 316 317 317 316 316 314 313 312 312 311 309 305 305 307
298 296 293 293 291 291 296 297 296 296 297 295 296 286 287 291 294 295 297 297 296 296 295 296 296 296 296 296 296 296 297 297 297 297 298 299 300 301 302 303 303 304 305 307 308 308 309 311 311 310 310 310 311 311 311 310 309 309 309 309 308 308 307 307 306 306 307 308 308 309 310 312 314 316 315 314 313 312 311 311 311 311 312 312 313 315 313 310 308 307 307 306 305 303 301 301 302
292 293 293 288 288 286 293 296 295 296 296 295 296 287 287 290 293 295 296 297 296 295 295 295 296 296 295 295 296 296 296 296 297 299 299 299 300 302 302 303 304 304 305 306 307 308 308 309 309 308 308 308 308 308 308 307 307 307 307 306 306 306 306 305 305 305 306 306 307 307 308 308 309 311 311 310 309 308 307 307 308 309 310 310 309 310 311 307 304 303 303 303 301 300 299 299 299
293 290 284 287 288 287 293 296 296 295 295 295 294 287 289 292 293 295 296 296 296 295 295 295 295 295 296 295 295 295 295 296 297 298 298 298 299 300 302 302 303 303 304 306 307 308 307 307 308 306 307 306 306 307 306 306 306 305 305 305 304 304 304 304 304 304 304 305 305 306 306 306 306 307 307 307 305 305 305 304 304 305 305 305 305 305 307 306 302 300 300 300 298 297 297 296 296
291 289 284 287 287 288 291 295 296 295 293 295 295 287 289 291 293 294 295 296 295 294 295 295 295 296 296 295 295 295 295 295 295 296 297 297 299 300 300 301 302 303 305 306 306 306 305 306 307 305 305 305 305 303 303 303 302 301 301 301 301 301 301 300 301 301 302 301 302 303 305 305 306 305 305 305 304 303 303 302 302 303 303 302 302 302 303 304 301 298 297 297 296 295 295 294 295
286 289 288 288 289 288 288 291 295 295 295 291 292 291 290 291 292 294 295 296 295 294 295 295 295 295 296 295 295 295 294 294 294 295 296 297 298 300 300 301 303 304 305 307 307 306 305 305 305 305 304 304 303 303 302 301 300 300 299 299 299 298 298 298 298 298 298 298 299 299 300 301 303 304 304 303 302 302 301 301 301 301 301 301 300 300 300 302 302 298 295 295 294 293 293 292 293
284 288 287 288 290 290 290 290 291 293 293 291 291 289 291 292 292 293 295 296 295 295 295 296 295 295 295 295 295 295 294 293 293 295 296 297 297 299 300 301 302 303 305 306 306 306 306 305 304 304 303 302 301 301 301 300 299 298 298 298 297 296 296 297 297 296 296 296 296 297 298 298 299 301 301 301 300 300 299 298 298 298 298 298 297 297 298 298 298 297 294 293 293 292 291 291 292
290 290 288 288 289 288 290 292 294 295 291 291 290 289 291 293 292 293 294 295 294 295 294 294 294 294 294 295 294 294 293 292 294 295 296 296 296 298 300 301 302 304 305 305 305 306 305 305 304 304 304 304 303 301 301 300 299 297 296 296 295 295 295 295 295 294 294 294 295 295 295 296 297 298 298 298 297 296 295 295 294 295 295 294 294 293 292 293 294 295 294 292 289 289 289 289 290
293 292 291 290 289 290 293 292 294 294 293 290 292 292 291 292 293 294 295 294 293 293 293 294 294 294 294 294 294 293 292 293 294 295 296 296 296 297 300 301 302 304 304 304 304 304 304 304 303 302 303 302 301 300 299 298 296 296 295 294 293 293 293 293 292 292 292 293 293 294 294 294 294 294 295 294 293 293 292 292 292 291 291 291 290 289 289 289 290 292 293 293 289 287 287 288 288
293 291 289 289 289 289 293 294 294 294 292 288 290 290 291 293 293 294 293 293 293 293 293 293 294 294 294 294 293 293 293 293 294 294 295 295 295 297 300 301 300 301 302 302 302 303 303 303 301 300 300 299 298 298 298 298 297 296 295 293 293 292 292 291 290 291 291 292 292 292 292 292 292 292 292 292 291 290 289 289 289 288 289 289 289 289 288 289 288 288 289 288 289 287 286 286 288
292 290 290 288 289 291 293 293 294 293 293 288 288 290 292 293 294 293 293 294 295 296 296 296 295 294 294 294 293 292 292 292 292 294 294 295 295 296 299 299 300 301 302 302 302 302 300 300 299 299 298 298 298 298 297 295 296 295 294 293 292 290 291 291 290 290 290 289 289 289 289 289 290 289 290 290 289 289 288 288 288 288 287 288 288 287 287 286 286 286 286 286 284 286 285 287 286
290 289 288 288 288 290 286 290 292 293 291 288 289 289 291 293 294 294 294 295 295 296 296 295 295 295 294 294 294 292 292 291 291 293 293 294 294 295 297 298 299 301 301 301 301 301 299 298 297 297 297 297 297 297 296 295 294 294 293 292 291 290 288 289 288 288 288 288 287 288 288 288 289 288 288 288 288 287 287 287 287 287 287 287 287 287 286 286 286 285 286 286 284 283 283 284 286
289 291 289 288 289 290 290 289 292 292 292 293 290 289 290 292 293 295 295 294 293 293 294 294 294 294 294 294 294 293 292 292 291 292 293 293 293 294 296 297 299 299 299 299 299 299 298 296 296 296 296 296 295 295 294 293 292 291 290 289 289 287 287 286 286 286 286 287 287 287 287 287 288 288 288 288 288 287 287 287 287 287 287 286 287 286 286 286 286 285 285 285 284 283 282 282 284
289 290 292 291 291 291 292 292 291 287 286 290 291 284 282 286 292 293 292 290 291 292 292 292 292 292 293 293 293 293 293 293 292 292 293 293 293 293 295 296 296 297 298 299 299 299 297 296 295 295 295 295 294 293 293 292 291 290 288 287 286 285 284 284 283 284 284 285 285 286 286 287 287 287 287 287 287 287 287 287 286 286 286 286 286 286 285 286 285 285 285 285 284 284 283 283 282
287 288 293 293 293 292 291 290 290 282 283 289 292 286 282 286 290 291 290 290 291 290 291 292 291 291 292 293 292 292 292 291 292 292 293 292 292 293 294 294 295 295 296 298 298 298 297 296 295 295 295 295 295 294 292 292 290 289 288 287 286 285 284 284 284 284 285 285 286 285 286 286 286 286 286 286 286 286 286 286 286 286 286 285 286 285 285 284 285 285 285 285 284 285 284 282 282
286 290 294 293 291 290 291 291 290 286 286 289 291 287 284 286 291 294 291 290 290 290 291 291 291 291 291 291 292 292 292 291 291 291 292 292 292 293 293 294 295 296 296 297 296 295 294 294 294 294 294 294 293 291 290 291 289 288 286 285 285 284 284 284 284 284 284 285 285 285 285 285 286 286 286 285 285 286 285 285 285 285 285 285 285 284 284 284 284 285 284 284 284 284 283 282 281
288 293 293 292 292 291 290 290 287 285 285 284 286 289 284 284 286 290 292 289 289 289 291 291 291 292 291 291 292 291 292 292 292 291 291 292 292 292 292 292 293 295 295 295 294 293 292 292 292 291 291 291 290 290 290 289 289 287 286 286 285 285 285 285 285 285 284 285 284 284 284 284 285 285 285 285 284 285 285 284 284 284 284 284 284 284 284 284 283 283 283 283 283 283 283 282 281
293 293 293 292 291 290 290 286 288 284 283 282 284 288 284 286 286 286 288 288 290 291 292 293 292 292 292 291 291 291 291 290 291 292 291 292 292 291 291 291 293 293 294 294 292 291 291 291 290 290 290 290 290 289 289 289 288 287 286 285 285 285 285 285 285 284 284 284 283 283 283 283 283 284 284 284 284 284 284 284 284 283 284 284 284 283 283 283 283 282 282 282 282 282 282 283 281
294 293 291 289 287 285 283 283 283 285 281 284 286 288 287 283 285 288 287 288 292 294 292 292 291 291 292 292 292 291 290 290 290 290 291 291 290 289 290 291 291 292 292 292 291 291 290 290 290 289 289 289 289 289 289 288 287 287 286 286 286 285 285 285 284 283 283 283 283 282 283 283 283 283 283 283 283 283 283 284 283 283 283 284 283 283 282 282 282 282 282 282 282 281 281 281 282
295 289 285 286 285 280 281 282 285 281 282 284 288 288 288 282 281 287 293 292 291 292 293 292 290 291 291 291 291 291 290 290 290 290 289 288 288 288 289 289 290 290 290 290 289 289 289 289 289 289 289 289 289 288 288 288 288 287 287 286 286 286 286 285 284 283 283 282 283 282 282 282 282 282 282 282 282 283 283 282 282 282 282 282 282 282 282 282 282 281 281 281 281 280 281 281 280
291 289 289 285 281 279 276 280 278 280 282 282 286 288 283 285 291 289 290 291 294 292 294 294 292 291 291 290 290 290 290 290 290 289 288 287 288 287 288 288 288 289 289 289 289 289 289 289 289 289 288 288 288 289 288 288 287 287 287 286 286 286 286 285 284 284 283 283 283 282 282 282 281 282 281 282 281 282 282 281 281 281 281 281 281 281 281 281 281 281 280 280 280 279 279 279 279
289 289 285 283 278 278 278 276 276 276 280 283 282 285 285 284 288 293 296 298 292 289 289 291 293 292 291 290 290 290 290 290 289 288 287 287 288 288 288 288 288 288 288 288 288 288 289 289 289 289 288 288 288 288 288 287 287 287 287 287 287 286 285 285 285 284 284 283 283 282 282 282 281 281 281 281 281 282 281 281 281 281 280 280 281 280 280 280 280 280 279 279 279 278 279 278 278
290 289 290 286 284 279 277 278 277 277 279 278 280 283 279 280 287 288 286 286 287 287 289 290 290 291 291 290 289 289 289 289 289 288 287 287 287 287 288 288 288 288 289 289 289 288 288 288 288 288 287 287 287 287 287 287 287 287 287 287 286 286 286 285 285 285 284 283 283 282 282 282 282 281 281 282 281 281 281 281 281 280 280 280 279 280 280 279 279 280 279 278 279 278 278 278 278
287 288 289 285 287 285 284 278 277 276 276 275 277 281 281 286 287 286 286 287 287 287 288 290 289 289 288 288 288 288 289 288 288 287 287 287 287 287 287 287 288 288 288 288 288 288 288 288 287 287 287 287 287 287 287 287 287 287 286 286 286 286 286 285 285 285 284 283 283 282 282 281 281 281 281 281 281 281 280 280 280 280 279 279 279 278 278 278 278 279 278 278 277 279 277 277 277
286 289 286 289 290 290 284 280 279 279 279 281 280 281 283 286 290 287 288 288 287 287 288 288 288 288 288 288 288 288 288 288 287 287 287 287 286 286 287 287 288 288 288 288 288 288 288 287 287 287 287 286 287 287 286 286 286 286 286 286 286 285 285 284 284 283 283 283 282 282 282 281 281 281 281 281 281 280 280 279 279 279 278 278 277 277 277 277 277 278 278 277 277 276 277 276 276
287 283 288 290 290 289 287 283 283 281 280 283 282 282 282 282 284 284 286 286 287 288 286 287 286 287 287 287 288 288 288 288 288 287 287 287 287 286 287 287 288 288 288 288 287 287 287 287 287 286 286 286 286 286 286 286 286 285 285 285 285 285 285 284 284 283 283 282 282 282 282 281 281 281 282 281 280 279 279 279 278 278 277 277 277 277 277 277 277 277 276 277 276 276 276 276 276
290 287 291 291 283 283 285 284 280 280 279 281 280 281 284 284 287 283 285 285 287 287 286 285 286 286 287 287 287 288 288 288 287 287 287 286 287 286 286 287 287 287 288 287 287 287 287 286 286 287 286 286 286 286 286 286 286 286 286 285 285 284 284 284 283 283 283 282 281 281 281 281 281 281 280 279 279 278 278 278 277 277 277 277 276 276 276 276 276 276 276 276 276 276 275 275 275
291 292 290 289 284 281 282 285 282 283 280 276 279 278 282 285 288 286 289 288 289 288 286 286 288 288 288 288 288 288 288 288 288 287 287 287 287 286 286 286 286 286 287 287 287 286 286 286 286 286 286 286 285 285 285 285 285 285 285 284 284 284 284 284 283 283 282 281 281 281 280 280 280 279 278 278 278 277 277 277 277 277 276 276 276 275 275 275 275 275 275 276 275 275 274 274 274
285 286 284 288 286 287 285 282 283 279 274 274 277 278 280 281 288 290 291 290 290 289 289 289 289 288 289 289 289 288 288 288 288 288 287 287 286 285 285 285 285 285 286 287 286 286 286 286 286 286 285 285 285 285 285 285 285 285 285 284 284 284 283 283 282 282 281 281 280 280 279 279 279 278 278 278 277 277 277 277 277 277 276 276 275 275 275 274 274 274 274 274 274 274 274 273 274
290 289 287 290 286 284 281 281 284 283 280 278 275 280 284 287 289 288 290 292 291 291 291 290 290 289 289 289 289 289 288 288 288 288 287 286 286 285 284 284 284 285 285 286 286 285 285 285 286 285 285 285 285 285 285 285 285 285 284 284 284 283 283 282 281 281 280 280 279 279 279 278 278 278 278 278 277 277 277 277 276 276 276 275 275 274 274 274 273 273 273 276 275 273 273 272 273
Wind_Speed
8 7 7 6 2 0 2 1 1 2 4 2 2 3 2 3 2 4 4 3 4 2 0 1 4 5 5 6 12 8 5 2 2 6 2 1 0 1 3 3 4 8 8 6 5 6 6 8 9 9 11 12 13 13 12 11 11 11 10 10 10 11 11 11 10 11 11 11 12 12 12 12 11 12 12 13 14 15 15 14 14 15 15 16 17 18 18 17 17 17 17 16 16 15 15 14 13
6 6 7 5 3 1 1 2 2 2 5 5 1 2 2 2 7 3 5 4 1 1 1 2 2 3 7 10 7 11 10 6 3 3 2 3 0 3 4 4 3 10 8 7 6 6 6 7 9 9 12 13 13 13 12 11 11 11 11 10 10 10 10 10 11 11 11 11 11 11 11 11 11 11 12 12 13 15 15 14 14 14 14 15 15 17 17 17 16 16 16 16 15 15 15 14 13
5 6 7 5 2 1 1 2 1 2 5 5 1 2 1 9 5 3 4 3 1 1 0 2 3 4 7 6 10 5 1 3 5 3 2 0 2 3 5 4 1 10 9 6 6 6 6 7 9 10 12 12 13 13 12 12 11 11 11 10 11 10 10 10 11 11 10 10 10 10 10 10 11 11 13 13 12 13 14 12 13 14 13 14 15 17 17 16 16 16 15 15 15 14 14 14 13
4 1 1 2 2 2 1 2 2 4 6 5 3 2 4 5 5 5 3 2 2 1 1 1 3 2 6 7 4 5 3 2 2 1 1 1 1 5 5 4 1 6 8 7 7 7 6 8 10 10 12 12 13 12 12 11 11 10 10 11 10 10 9 10 10 10 10 10 9 9 10 10 10 11 12 13 13 12 13 12 13 13 13 15 15 16 16 15 15 15 14 14 14 14 14 14 14
3 3 3 1 2 2 1 0 2 4 4 3 5 0 5 5 5 5 1 1 3 4 2 1 3 2 4 4 1 2 1 1 3 5 2 1 3 4 5 4 1 9 8 8 8 8 8 11 9 10 11 13 13 13 11 11 10 10 9 10 10 10 10 10 10 10 10 9 8 9 9 10 10 10 11 13 12 13 13 12 12 12 13 15 15 16 15 14 14 13 13 13 13 13 13 13 14
4 3 0 2 0 2 3 4 4 5 1 3 5 3 5 6 6 5 3 2 1 3 1 4 2 1 4 3 2 3 3 2 1 2 1 1 3 4 4 4 2 5 8 7 8 8 8 12 10 11 12 12 13 12 11 10 10 9 9 10 10 9 9 10 10 9 9 9 8 8 8 8 9 10 12 11 12 13 13 11 13 15 15 14 15 14 14 13 12 12 12 12 12 12 13 13 13
3 5 1 2 1 2 3 4 6 3 5 2 5 5 7 5 7 6 4 2 2 4 2 4 6 6 6 1 3 2 2 2 2 0 1 1 2 4 4 1 3 3 6 6 5 7 10 13 13 12 11 11 11 12 10 10 10 10 9 10 10 9 9 8 8 9 8 8 8 8 7 8 9 10 11 11 10 11 12 12 14 14 14 14 14 14 13 12 12 12 11 11 12 12 12 13 13
0 2 1 3 1 2 3 1 2 2 2 3 3 7 5 5 4 4 3 3 1 1 2 4 2 6 2 2 4 0 4 4 4 3 2 3 4 5 6 4 4 7 7 6 5 5 10 13 12 13 13 12 11 11 9 10 10 10 8 10 9 9 8 7 7 8 7 7 7 7 7 8 8 9 11 10 10 12 12 13 13 14 13 13 13 13 13 12 12 11 11 11 11 12 12 13 13
1 1 1 4 2 2 4 2 3 1 2 2 2 2 3 4 4 3 4 1 2 1 3 4 2 6 2 6 4 2 2 3 4 3 4 4 4 4 5 8 6 6 6 6 6 6 6 9 11 12 13 12 12 12 12 10 9 9 9 9 10 9 8 7 6 6 6 7 7 7 7 7 8 9 11 10 11 11 12 12 13 13 13 13 13 13 13 13 12 11 11 11 11 11 12 12 13
1 2 1 1 1 2 2 1 4 1 3 2 5 3 2 1 2 4 4 5 4 2 2 1 3 5 3 8 3 2 2 3 2 4 3 4 3 4 7 7 6 6 5 5 5 5 4 8 10 10 11 13 13 13 12 11 10 10 9 10 10 10 8 7 7 6 6 7 8 8 8 8 7 9 10 11 12 11 11 11 12 13 13 13 13 13 13 12 12 12 11 11 11 11 12 12 12
2 2 2 2 4 2 4 1 2 2 3 1 2 1 0 0 2 2 2 3 1 2 1 5 5 4 3 2 2 1 1 4 5 3 2 3 3 5 5 5 6 6 6 4 5 5 5 4 8 10 9 10 10 10 10 8 9 8 8 8 9 8 9 8 7 7 7 8 8 9 8 9 8 9 10 10 11 11 11 11 11 13 14 14 14 13 12 12 12 12 11 11 11 11 12 12 12
2 2 3 2 1 2 3 7 4 3 2 2 1 1 2 1 2 2 2 7 2 4 3 2 1 4 4 2 2 1 1 5 2 4 3 2 5 5 5 4 6 6 5 4 4 4 5 5 4 7 9 9 8 8 8 8 8 7 7 8 9 9 8 9 7 7 8 10 9 9 9 9 10 10 11 12 11 11 11 11 11 13 13 13 13 12 12 12 12 11 11 11 11 11 11 11 11
2 1 4 3 1 3 2 7 5 4 2 0 4 1 1 4 1 1 3 5 2 5 2 2 0 3 1 1 2 0 6 5 3 2 3 4 4 4 5 5 5 6 7 5 5 4 3 3 5 5 6 9 8 8 8 7 7 6 5 6 8 8 8 8 7 8 9 9 9 9 9 9 9 10 12 12 11 10 12 12 13 14 14 13 12 12 12 12 12 11 10 11 10 10 10 11 10
2 1 2 1 0 1 5 3 2 4 1 1 1 1 1 1 0 3 7 6 2 3 1 1 2 5 2 3 0 3 2 4 3 1 1 6 5 5 5 4 5 6 6 7 6 4 3 2 2 6 5 6 5 6 6 7 6 7 6 5 6 7 6 7 7 7 7 8 8 9 9 9 8 10 10 10 10 9 11 11 12 13 13 13 12 12 11 12 11 11 11 11 11 10 10 10 10
1 0 2 1 2 2 0 5 6 4 3 1 1 1 1 1 2 5 7 5 2 1 1 3 1 3 3 4 2 0 2 4 4 2 2 4 7 5 4 4 5 5 5 6 5 6 4 4 2 1 3 5 5 4 3 5 6 4 5 5 6 7 7 6 6 7 8 8 8 8 8 8 9 10 10 10 9 9 8 10 11 11 13 13 12 12 12 12 10 10 11 11 11 12 11 11 10
1 2 2 1 1 2 1 1 3 7 1 2 2 5 4 2 1 3 0 2 2 3 3 1 5 1 1 3 1 1 2 4 4 1 3 6 5 4 4 4 5 6 7 8 7 6 4 4 3 3 0 3 5 5 5 5 5 7 5 4 5 7 7 7 7 8 8 7 7 7 7 6 6 7 10 9 10 8 7 7 8 9 12 12 12 12 12 10 9 9 9 10 11 11 11 10 11
2 3 2 3 1 2 1 1 2 1 1 1 1 2 1 0 1 1 0 1 4 2 5 3 2 4 3 2 3 1 3 4 7 7 5 5 6 5 6 7 6 6 6 7 7 7 8 8 7 4 2 0 2 5 6 6 7 9 6 6 4 6 7 7 7 9 7 6 6 6 6 4 4 4 5 4 8 7 9 9 8 8 9 10 11 12 11 9 8 9 8 8 9 9 7 7 8
2 2 2 2 1 2 1 1 1 4 5 3 1 1 4 2 1 1 1 5 5 4 8 2 7 6 3 2 3 4 5 8 6 9 7 6 5 5 6 5 6 4 6 6 6 7 7 7 6 6 5 4 1 2 4 5 5 7 6 5 4 4 5 5 6 5 6 4 5 5 3 4 4 4 5 5 3 5 6 8 8 9 8 9 10 10 10 8 8 8 8 7 6 6 6 4 5
2 1 3 2 1 1 1 1 3 3 3 4 2 3 3 3 4 1 2 1 4 4 3 2 6 4 5 5 5 6 7 8 9 8 9 8 7 7 5 5 6 5 7 6 6 7 6 6 6 6 6 6 5 3 1 6 7 6 6 5 4 4 4 6 4 5 4 5 4 4 4 4 4 5 5 7 6 7 7 9 10 9 9 9 9 9 8 7 7 8 7 7 6 6 5 4 5
0 2 3 0 2 1 3 3 3 2 6 5 4 0 4 2 1 0 1 0 4 5 5 1 3 4 3 3 5 5 7 8 8 8 9 8 7 6 6 6 5 5 4 4 4 5 7 6 7 6 4 5 5 2 2 3 6 5 5 5 4 5 4 4 3 3 3 3 2 1 2 4 5 4 6 8 8 6 6 8 10 9 9 10 10 7 7 5 7 6 7 6 5 4 4 5 6
1 4 1 2 2 2 1 4 3 4 4 4 4 0 1 0 2 2 2 1 2 1 1 4 6 7 5 4 4 5 6 8 7 8 8 7 6 6 5 4 4 4 3 3 5 6 6 6 6 7 7 3 3 5 2 1 4 5 5 5 5 5 4 3 3 2 3 3 3 2 3 3 3 3 3 5 5 5 5 4 5 4 4 5 6 4 5 4 4 3 4 5 4 4 5 5 5
1 1 2 3 2 5 1 4 3 3 3 4 2 1 2 0 1 2 3 3 5 6 3 5 7 6 6 5 4 4 5 7 7 7 7 7 6 5 5 5 5 4 5 5 5 5 5 6 6 6 8 5 3 3 3 0 2 3 5 6 5 4 4 4 4 4 4 4 4 3 3 4 5 2 2 1 1 4 6 5 4 4 4 5 4 4 4 3 2 4 5 5 3 3 4 4 4
1 1 1 3 1 4 2 1 0 2 1 1 1 1 1 1 1 2 4 4 2 2 5 5 6 5 5 5 4 4 5 7 6 6 6 6 5 5 5 4 4 5 5 4 4 3 5 6 7 6 7 7 5 3 4 4 6 6 5 4 4 4 4 5 5 7 6 6 5 4 3 3 3 1 1 2 2 3 5 4 4 4 4 5 3 5 4 3 4 4 5 4 3 3 3 3 4
4 0 1 2 1 4 3 3 2 2 6 1 1 1 1 1 1 0 3 0 6 5 5 5 4 5 6 6 4 5 5 6 6 6 6 6 6 4 4 4 3 2 2 4 3 4 5 6 6 6 7 5 4 3 2 7 5 7 7 8 8 8 9 7 7 7 6 6 7 6 5 4 3 3 3 3 1 2 2 3 3 3 2 2 2 4 5 5 4 4 4 3 4 4 4 3 3
2 1 0 1 1 2 4 4 2 1 2 1 2 1 3 3 2 0 3 5 5 6 5 5 5 6 6 6 5 5 5 6 7 6 6 5 5 5 4 4 3 3 5 5 4 5 5 6 7 7 5 4 3 3 8 6 7 8 7 8 7 8 8 7 6 7 7 7 8 7 6 6 5 4 4 5 6 5 4 4 4 4 4 2 3 3 3 4 4 4 4 4 4 4 5 3 3
1 0 0 1 1 1 4 4 4 4 1 2 0 4 4 4 2 3 6 6 6 6 5 5 6 7 6 5 5 5 5 5 5 6 6 4 4 5 4 4 4 5 5 4 5 5 5 6 6 6 6 5 7 8 6 7 6 8 7 8 7 8 7 6 7 6 7 8 7 7 7 6 6 5 5 5 7 6 7 7 6 5 5 4 4 4 4 4 5 5 5 5 4 4 4 2 3
2 1 1 1 4 3 2 6 5 5 4 4 4 2 3 3 6 5 1 6 7 6 6 5 7 6 5 5 4 4 6 5 6 5 6 4 4 5 3 3 5 4 5 5 5 5 5 5 6 6 7 6 7 8 7 8 7 9 7 7 7 8 7 7 6 6 8 8 7 6 7 7 7 7 6 6 7 7 7 7 6 5 7 6 5 5 4 4 5 6 5 4 4 3 2 2 5
3 1 3 4 6 4 3 3 6 3 3 5 6 4 1 1 1 6 7 7 7 9 6 6 6 5 5 5 5 4 5 4 4 6 5 4 4 3 3 4 4 5 5 5 5 5 4 6 6 7 6 6 9 8 8 8 9 8 8 7 8 8 8 7 8 8 8 8 7 7 7 7 7 8 8 8 8 7 7 7 6 7 6 6 5 5 6 7 7 6 7 6 6 5 6 7 7
0 1 2 5 5 4 4 7 6 6 2 6 5 1 3 1 7 1 10 8 6 7 7 6 6 6 5 4 4 4 4 4 4 5 4 4 3 2 5 4 3 3 3 4 5 5 6 5 6 7 5 8 9 8 9 8 8 8 8 8 8 7 8 8 8 7 7 7 7 7 7 7 7 7 8 9 8 8 7 8 8 8 6 5 6 7 8 8 8 8 9 9 9 8 8 7 6
1 1 2 4 4 5 9 4 4 6 2 7 5 3 7 8 6 3 7 9 6 6 6 5 5 6 5 5 5 4 4 4 4 4 4 3 3 4 5 4 3 3 3 3 4 5 4 4 4 4 6 9 9 7 8 9 8 8 8 8 8 8 8 10 8 6 8 7 7 8 8 9 8 7 8 9 8 8 8 9 8 8 6 6 8 8 8 8 8 9 7 8 7 7 6 6 8
2 2 2 2 3 4 4 3 5 7 1 6 4 4 8 6 2 4 6 7 10 8 6 6 6 5 5 5 5 5 3 4 4 4 5 4 4 4 5 4 4 4 3 3 5 5 6 5 4 6 6 9 10 9 10 10 7 9 10 9 8 9 10 9 7 7 7 7 8 8 9 9 9 9 9 9 8 8 8 8 8 7 7 7 9 7 8 9 9 9 8 7 7 7 5 6 6
0 2 3 3 3 5 5 2 9 11 0 3 6 2 8 7 5 5 6 6 6 8 7 7 6 6 6 5 5 5 5 4 4 4 5 4 4 4 3 4 3 3 3 3 4 5 7 6 6 8 8 10 10 8 9 10 9 10 10 9 9 9 9 9 8 7 7 7 7 8 9 10 10 9 9 8 9 9 8 9 7 7 7 7 8 8 8 9 8 9 9 8 7 7 7 7 6
1 4 3 3 2 5 5 1 2 3 4 1 7 5 2 4 5 6 5 7 6 6 6 7 8 8 7 6 6 5 5 4 4 4 4 4 4 4 3 4 3 3 3 4 5 5 6 7 7 9 10 10 11 10 11 10 10 10 11 11 11 9 9 9 8 7 8 8 7 7 8 9 9 9 10 9 9 9 8 8 7 8 7 8 8 8 9 6 8 8 9 8 6 5 6 6 6
2 0 5 4 3 1 3 4 3 1 6 4 4 2 6 2 4 7 6 9 7 7 9 9 8 7 7 6 7 7 6 5 5 4 4 4 4 4 4 4 3 3 4 4 5 6 6 6 7 8 8 9 9 9 10 10 9 11 11 10 10 10 10 8 7 8 8 7 7 8 8 8 8 9 9 9 10 9 8 8 8 8 8 8 8 8 8 7 7 8 9 8 7 7 8 7 6
3 2 2 6 2 4 6 1 3 5 2 4 2 5 10 8 3 6 9 8 8 10 10 11 9 8 8 7 7 7 6 6 5 4 5 5 4 4 4 4 4 3 3 4 4 6 7 7 8 9 9 9 10 11 11 11 11 13 11 11 11 10 9 8 7 8 7 7 8 8 9 8 8 9 9 9 9 9 9 9 9 9 8 8 9 9 8 8 7 8 8 7 7 8 7 6 4
5 5 4 3 2 3 2 5 2 10 5 5 5 8 11 10 6 6 5 7 9 9 3 4 6 7 7 7 7 7 7 5 4 4 5 4 4 5 4 4 4 4 4 4 4 4 6 7 8 9 8 8 8 9 8 9 9 9 11 9 11 9 8 8 8 8 7 8 8 8 9 9 8 9 10 9 10 9 9 9 9 9 8 8 10 10 8 7 7 7 9 9 8 8 9 7 7
4 2 2 4 4 5 2 1 3 4 1 7 10 10 7 6 8 10 11 6 6 6 7 8 8 8 8 7 7 7 8 7 5 5 5 5 5 4 4 4 5 5 5 5 4 4 5 6 6 8 8 7 7 8 7 7 9 10 9 10 10 7 8 8 9 8 8 8 9 9 10 9 9 10 9 9 10 10 10 9 9 9 8 9 9 9 7 8 7 6 5 7 9 11 11 10 9
5 6 5 7 2 7 3 2 2 1 4 3 5 6 8 9 5 9 5 6 11 12 11 10 10 10 9 9 8 8 6 4 5 4 4 4 4 4 4 5 4 7 4 4 5 4 4 5 6 7 6 5 4 5 7 6 4 5 10 8 9 7 7 8 9 8 8 8 10 10 9 9 9 9 9 9 10 10 9 9 9 8 8 8 9 8 10 10 10 9 4 6 5 9 8 9 10
7 7 6 5 8 4 4 1 0 1 1 7 5 6 8 8 7 5 8 12 12 14 16 16 15 12 10 9 9 8 8 7 5 5 5 5 5 4 4 5 4 5 6 5 4 6 6 5 5 6 5 6 6 7 7 8 7 6 9 8 9 10 7 7 9 8 7 9 9 9 8 8 9 9 9 9 9 9 9 9 8 8 9 7 10 11 10 11 8 8 7 5 6 5 7 7 10
6 6 3 8 4 1 6 2 0 2 4 2 1 6 8 7 7 8 10 14 10 10 9 6 8 14 14 14 13 12 10 10 9 8 7 6 5 5 5 5 6 6 6 5 5 6 6 6 6 7 7 6 7 6 9 10 10 11 11 10 9 10 9 7 9 7 8 11 11 8 8 8 9 9 9 9 9 9 9 10 8 9 9 8 9 10 9 9 8 8 7 7 4 8 6 8 8
3 5 4 3 3 4 6 5 1 1 3 1 5 8 9 6 12 11 9 4 1 1 2 2 5 5 6 6 7 11 14 12 10 8 7 7 7 6 7 6 6 6 5 5 4 5 5 7 7 8 8 8 7 9 11 12 12 12 11 11 11 11 8 8 9 9 8 8 9 9 8 7 9 9 9 9 9 10 9 9 10 9 9 8 7 9 8 7 7 6 7 8 8 6 7 5 8
5 4 7 6 4 4 4 1 1 2 3 3 2 6 6 5 10 13 3 2 4 2 6 8 7 6 8 10 11 7 7 9 13 11 10 9 8 6 6 6 6 5 5 4 5 6 8 7 8 8 7 8 9 9 9 8 10 12 10 10 10 9 9 7 8 8 7 8 8 5 8 8 8 9 9 10 9 9 10 9 8 9 8 7 7 7 7 8 8 9 7 6 8 6 7 8 7
3 5 5 6 7 6 6 4 2 3 5 3 2 7 9 1 2 6 4 5 9 3 7 9 6 7 8 10 10 10 11 9 7 7 8 8 8 8 7 7 6 6 4 5 6 7 8 7 7 7 8 8 8 7 5 7 8 7 8 8 8 10 11 6 5 5 8 6 7 9 8 8 8 10 9 8 8 8 8 8 8 8 8 7 7 8 8 8 7 7 7 8 7 6 6 9 7
5 2 2 6 5 6 7 5 5 6 2 2 0 3 7 14 8 7 5 8 10 11 11 8 8 8 9 9 9 10 10 10 11 11 9 7 8 9 9 7 7 7 5 5 6 6 7 7 7 7 7 7 5 5 5 6 10 9 10 10 9 9 10 11 8 7 6 7 9 9 8 8 7 7 8 8 7 7 7 8 8 8 8 7 7 7 7 6 7 6 7 7 7 7 7 8 6
4 2 5 3 6 6 3 2 2 1 3 8 3 2 3 10 4 2 8 7 9 15 15 14 13 12 10 9 10 10 10 11 12 11 11 9 9 7 7 8 5 6 6 7 6 6 6 6 7 7 7 7 6 7 8 7 9 10 10 10 11 8 9 9 8 7 8 7 10 7 8 7 7 7 7 8 7 7 7 7 7 8 8 7 6 7 7 7 8 8 8 8 8 8 6 5 7
2 2 5 5 5 4 3 1 1 2 1 7 6 5 5 19 4 3 0 5 12 13 16 17 16 15 13 11 9 8 7 7 8 10 9 8 7 7 7 7 7 6 6 6 6 6 6 5 7 8 7 7 7 8 10 9 9 9 10 10 14 11 9 8 7 8 7 7 9 7 6 7 6 7 7 6 7 7 7 7 7 7 7 7 7 7 7 8 7 7 7 6 7 8 6 7 6
4 5 6 5 8 4 3 4 3 3 8 8 8 10 8 13 2 9 7 9 12 12 5 5 5 8 10 11 12 10 9 9 8 8 8 7 6 8 9 10 8 6 6 7 7 6 6 7 7 8 7 7 8 9 11 11 8 8 10 11 13 14 11 11 11 8 7 7 9 7 7 6 5 6 6 6 6 6 7 6 7 7 6 6 7 7 6 7 6 6 6 7 8 7 6 6 7
8 2 4 5 3 5 3 2 2 2 12 5 12 10 11 12 4 4 9 2 2 5 9 9 11 15 14 11 9 10 10 9 9 10 9 9 9 8 8 9 9 8 6 7 6 6 6 6 8 9 7 8 8 9 11 11 9 8 9 10 11 11 12 10 11 12 9 9 8 8 6 6 6 5 5 6 6 5 7 7 6 6 7 6 7 5 5 6 6 6 6 7 6 5 5 6 5
5 7 7 6 3 4 2 2 3 8 11 1 7 9 2 18 13 5 5 7 11 6 8 9 13 13 11 10 10 11 10 10 11 10 10 10 11 11 10 9 8 8 8 7 8 7 7 8 9 11 8 7 9 9 11 10 9 9 10 9 9 9 9 10 10 10 8 9 8 8 8 7 6 6 5 7 5 5 6 7 6 6 6 5 5 6 5 5 6 6 6 6 6 6 5 5 6
7 9 8 6 2 3 5 3 3 5 4 3 3 3 9 2 8 10 18 17 5 4 6 5 10 13 14 14 12 12 11 11 10 10 10 10 10 10 10 10 9 8 8 8 8 8 7 8 9 11 9 7 8 9 10 11 9 9 8 9 9 9 9 9 8 10 8 7 7 8 7 7 7 7 6 6 5 5 5 5 6 6 5 4 5 6 5 5 5 6 5 6 5 4 4 5 5
9 4 12 10 8 4 4 6 7 7 6 2 2 5 7 4 6 1 5 5 5 4 4 1 5 7 9 9 9 10 11 10 11 12 12 12 12 12 12 11 10 9 10 9 8 8 8 9 9 11 10 8 9 9 9 10 9 8 7 7 7 7 8 8 7 7 8 8 6 7 6 6 7 6 6 5 4 6 6 5 5 6 5 5 5 5 5 5 4 5 6 5 5 4 4 5 4
3 3 4 4 11 6 10 3 2 1 1 2 1 7 4 6 2 2 1 3 3 4 2 6 7 8 10 10 12 12 11 11 11 11 11 10 10 10 10 10 10 10 11 9 9 9 9 9 9 10 11 9 9 9 8 9 8 8 7 8 8 8 7 7 7 6 6 7 7 8 7 6 6 6 5 6 4 5 5 6 5 5 5 5 4 5 4 5 4 6 5 5 5 3 5 5 4
4 5 8 9 1 4 3 2 0 0 2 11 5 7 6 7 10 6 1 0 1 3 2 4 7 9 10 11 11 12 12 12 12 12 11 11 9 9 10 11 11 10 10 11 11 10 11 11 11 11 11 8 9 9 9 8 8 9 8 8 8 8 9 9 9 9 8 7 7 7 7 6 6 6 6 5 6 5 5 5 6 5 5 4 4 4 4 4 4 5 5 5 5 4 5 4 4
6 5 8 3 2 3 3 5 1 1 7 7 5 10 5 2 12 2 1 1 2 1 3 4 5 9 12 11 12 13 13 11 9 9 9 11 11 11 10 9 10 11 11 10 10 8 9 10 11 12 11 12 9 9 9 9 10 9 9 9 8 8 9 8 9 10 8 9 7 6 6 7 6 6 6 5 6 6 5 4 6 5 4 4 4 4 4 4 4 5 4 4 3 4 4 4 3
8 6 3 8 4 3 2 2 7 4 7 6 4 6 10 10 12 3 3 6 9 8 5 5 8 9 11 10 10 8 8 9 11 12 11 12 12 12 11 11 9 8 8 8 8 8 8 7 9 10 12 11 10 8 8 7 8 8 7 9 9 9 8 8 8 8 8 9 9 7 7 7 6 5 6 6 6 6 5 5 5 5 4 4 4 4 4 4 4 5 4 4 4 4 4 3 3
1 2 3 0 3 1 6 8 1 3 6 1 6 4 12 7 7 10 10 14 14 11 8 13 15 15 13 12 12 13 13 13 12 11 11 11 11 10 12 12 13 12 11 9 9 8 9 9 10 9 8 8 8 9 9 10 8 8 8 8 7 8 8 9 9 10 9 8 8 8 8 7 7 6 5 5 6 5 5 6 5 6 5 4 4 3 3 3 3 4 4 5 3 3 3 3 3
1 2 4 1 0 2 3 1 5 6 3 4 6 10 6 5 5 12 14 15 15 16 18 14 13 13 12 12 14 13 12 12 12 12 12 12 12 10 10 9 9 8 7 8 9 11 10 9 10 11 13 11 11 10 10 9 9 9 11 11 10 9 9 8 9 8 9 8 7 7 7 6 6 6 6 6 5 6 5 6 6 5 5 4 4 3 2 3 3 3 3 3 3 3 3 3 3
11 13 12 13 9 5 5 9 1 3 2 6 4 15 5 2 2 3 7 9 10 15 17 15 13 13 12 11 11 12 12 11 12 12 11 11 10 10 8 7 7 9 10 11 9 9 10 11 11 11 10 10 12 10 10 10 9 10 11 11 10 8 9 8 9 8 9 8 7 7 7 6 7 6 6 6 6 5 5 6 6 5 4 4 3 3 3 3 3 3 3 3 3 3 3 3 3
Wind_Direction
317 315 308 303 264 136 36 18 68 311 61 107 124 55 129 55 82 57 40 2 44 285 224 24 35 18 74 121 107 91 20 95 299 125 168 227 238 336 359 353 101 119 131 136 130 128 134 141 140 140 135 130 129 126 123 120 117 113 110 109 109 105 100 97 94 89 88 88 88 86 83 88 92 93 90 92 97 96 92 86 83 81 79 73 68 61 58 55 50 46 44 41 37 36 35 35 35
304 319 314 309 281 76 294 122 105 23 37 53 52 80 76 82 60 73 77 87 181 208 267 86 40 85 104 121 121 82 25 20 30 105 51 146 127 15 318 312 102 137 140 138 134 130 133 140 143 143 142 136 133 130 127 123 121 119 115 113 110 108 106 104 99 95 92 90 86 83 85 86 92 96 101 98 91 94 91 86 87 81 73 72 68 65 60 54 50 47 44 41 38 35 34 33 33
317 347 331 5 42 86 261 52 27 91 81 67 327 104 352 69 98 90 103 110 175 257 43 10 59 48 52 63 35 55 187 9 37 57 113 293 10 291 307 294 92 147 142 140 136 132 134 142 147 145 144 139 137 134 130 128 126 123 120 115 112 111 108 105 104 104 103 100 94 89 89 88 89 95 96 89 95 91 88 88 85 85 82 73 69 65 59 54 50 47 45 43 41 37 36 34 32
325 267 204 16 352 23 63 24 94 119 106 175 66 359 84 121 112 122 131 107 8 80 29 24 62 298 93 62 139 78 78 31 320 209 104 347 193 262 273 282 264 145 136 147 144 137 135 147 146 145 148 146 141 136 135 133 129 128 125 120 118 114 113 110 109 108 107 104 101 101 96 93 94 100 102 102 93 94 94 91 86 81 78 76 69 65 60 55 51 48 46 45 44 42 40 38 35
337 301 136 57 101 351 87 186 126 95 104 183 138 187 117 124 125 108 129 134 23 68 44 73 77 23 86 104 7 74 290 283 32 30 117 233 271 261 286 272 349 143 148 153 144 141 141 146 151 143 150 150 145 141 137 136 133 130 126 127 124 121 118 117 114 112 114 110 103 97 96 93 93 98 102 104 103 97 94 90 88 84 81 77 75 70 66 61 57 54 52 51 50 47 45 44 40
290 352 217 110 94 180 47 35 11 67 223 153 107 152 152 139 124 136 130 88 143 80 120 56 141 101 33 14 18 78 298 83 171 48 110 272 272 285 295 293 291 157 151 152 144 142 149 148 148 144 152 152 149 144 140 139 138 133 132 131 127 124 121 120 123 121 118 113 103 101 96 94 92 96 104 107 110 107 104 99 85 87 84 81 78 76 74 67 63 61 59 59 58 56 53 49 46
325 23 10 23 355 57 142 122 83 90 344 113 138 145 144 147 150 124 134 44 336 49 101 108 104 95 82 179 55 79 348 262 71 331 106 261 299 341 322 264 205 125 112 139 136 140 147 149 150 145 149 151 153 149 144 142 141 139 140 136 130 128 126 128 126 122 117 112 107 99 94 91 96 100 109 109 110 108 105 98 90 87 85 82 81 80 76 70 66 64 63 65 64 63 60 57 51
253 89 298 84 293 56 50 134 87 166 39 87 164 124 143 141 128 109 161 97 252 81 359 122 117 95 307 77 120 289 7 37 109 112 42 28 29 6 15 37 91 87 110 109 115 121 140 143 147 145 147 151 153 150 149 147 148 145 145 141 138 133 134 132 126 118 113 105 103 92 93 97 97 102 106 111 111 109 109 102 96 92 88 84 82 79 76 72 67 63 63 65 67 66 65 61 56
351 96 343 68 20 27 64 85 112 89 109 50 43 139 140 133 140 137 99 157 120 70 25 11 87 82 211 64 81 135 36 9 49 73 68 43 49 18 34 38 66 92 97 111 117 120 124 138 139 145 144 143 148 160 154 152 156 147 148 144 143 142 137 134 121 111 108 100 89 80 81 90 98 98 109 113 113 110 107 105 102 99 94 90 84 77 73 70 66 63 61 61 63 65 66 63 57
18 94 325 126 124 49 66 21 68 196 138 177 111 97 93 11 42 95 131 72 130 89 342 50 81 117 134 101 103 356 3 344 1 41 26 67 54 42 43 48 51 83 90 102 107 112 109 127 134 141 145 146 159 161 157 159 157 150 157 150 148 146 141 133 126 117 114 104 98 93 92 90 101 102 111 119 117 113 114 109 109 104 97 89 82 77 74 70 66 63 61 59 58 58 60 60 59
359 2 145 60 25 75 118 129 102 59 105 109 43 358 153 102 82 92 123 131 90 105 309 42 70 134 117 72 123 207 38 20 31 357 348 96 72 55 48 40 54 61 87 106 115 112 112 107 125 136 149 149 153 157 158 152 157 158 159 152 148 148 147 136 131 133 127 119 114 108 108 111 111 114 113 115 118 115 111 112 104 95 91 89 85 80 78 75 72 68 64 60 60 58 56 55 54
23 358 12 102 37 150 195 136 147 140 90 73 35 333 328 55 52 53 82 96 61 49 59 17 87 128 55 115 210 207 345 26 360 325 343 103 83 68 56 39 46 41 59 95 106 106 113 112 111 129 135 138 145 150 146 158 164 157 155 152 151 152 152 143 139 134 129 124 124 127 122 122 124 120 122 129 131 125 120 115 107 100 98 95 94 91 85 82 77 73 71 70 69 69 66 61 54
103 87 64 80 223 94 158 104 177 127 88 296 167 263 35 56 85 153 81 73 75 72 2 337 210 84 124 167 195 350 17 340 325 311 357 92 97 78 60 45 41 42 33 54 105 115 111 109 118 118 123 137 132 136 144 158 159 159 154 154 148 155 154 147 138 134 134 132 130 123 121 124 128 132 134 136 134 130 132 128 119 115 111 108 105 101 93 89 85 82 77 76 74 74 77 74 66
97 134 117 261 71 121 123 154 138 109 346 244 266 191 34 106 272 110 104 74 8 108 218 297 80 102 91 80 293 351 319 295 310 289 13 105 102 89 83 68 49 49 47 58 62 69 66 97 130 123 120 121 127 136 152 159 166 163 158 143 144 150 153 143 135 130 134 129 124 125 126 126 126 129 132 132 126 129 132 124 122 120 115 112 106 98 93 86 85 84 79 74 70 65 68 74 73
67 141 84 125 330 78 198 117 197 130 171 174 241 83 45 323 100 53 98 116 92 213 185 47 175 85 219 136 257 249 278 280 288 279 99 112 102 104 100 83 64 52 43 46 47 51 54 60 55 138 157 136 129 137 151 159 161 163 157 147 138 149 148 142 132 125 122 127 130 126 127 127 129 129 130 129 125 124 131 125 125 124 120 114 107 97 90 84 84 86 81 76 70 61 54 56 59
133 77 90 86 280 122 263 95 89 103 178 167 240 124 75 327 35 90 189 141 189 9 45 336 14 117 123 113 162 203 268 317 316 208 117 98 87 72 62 57 54 42 39 32 25 16 26 41 44 77 104 153 154 166 160 167 171 159 159 145 138 145 150 148 136 125 125 127 126 120 108 103 113 127 132 132 132 126 122 120 124 118 116 113 109 103 95 92 89 87 84 79 75 71 58 44 36
44 82 47 30 351 72 298 54 112 171 216 202 273 98 126 183 315 99 144 67 98 19 56 2 65 48 69 142 186 109 11 22 49 61 57 55 82 51 43 34 37 37 27 30 31 15 16 12 359 19 50 139 198 177 174 168 172 161 160 157 161 153 155 153 133 116 109 98 102 98 103 110 117 108 124 136 140 139 142 133 123 115 110 113 111 107 103 101 94 87 86 80 74 71 63 50 34
59 57 109 32 194 65 252 147 195 178 124 186 54 110 118 130 327 284 42 51 84 62 73 39 48 63 106 120 102 81 44 47 41 66 58 62 58 56 46 25 40 32 24 11 19 18 12 5 358 1 1 355 65 201 176 166 160 165 165 154 169 163 156 147 126 131 124 129 121 140 151 147 142 145 137 134 134 136 134 126 123 124 121 118 114 108 107 104 97 89 81 76 69 56 47 43 34
92 81 82 158 181 299 158 161 97 114 165 167 174 75 115 182 136 271 89 303 107 73 50 63 84 62 47 57 66 69 58 48 53 61 63 60 49 58 58 38 30 25 25 11 360 12 4 351 358 354 354 348 340 36 135 160 158 164 162 165 165 171 153 138 152 146 154 146 163 169 171 152 152 161 153 157 154 152 148 145 143 136 127 125 115 112 116 107 94 83 65 48 49 50 46 42 44
283 108 69 247 207 83 60 94 81 78 147 123 99 16 103 203 122 169 159 111 101 149 146 107 120 137 120 75 75 73 69 63 56 62 63 59 53 49 44 40 32 28 29 17 352 352 1 2 343 337 341 337 333 26 59 156 163 162 162 161 168 175 168 172 164 147 140 139 120 130 186 173 162 162 164 163 147 146 148 151 144 133 132 124 123 122 119 105 87 68 53 43 52 52 55 46 53
292 70 155 204 208 91 327 75 81 65 103 138 125 173 61 287 180 117 169 92 8 244 247 191 162 152 145 124 95 82 75 73 64 61 63 57 50 45 45 45 47 29 18 5 10 359 351 349 346 331 327 318 340 322 82 179 177 170 162 167 170 168 171 152 124 105 121 115 149 122 63 70 96 117 161 170 161 139 141 147 132 132 129 124 124 124 123 119 106 88 72 68 67 68 58 54 59
73 126 199 170 74 81 224 107 84 93 71 89 107 84 230 242 27 124 131 166 209 194 170 121 125 139 140 121 103 88 87 86 81 76 75 73 62 42 30 22 26 29 6 27 357 351 342 338 340 326 316 307 311 298 301 249 174 147 168 171 155 164 134 105 63 82 56 58 39 88 92 85 64 57 94 357 101 145 148 148 141 139 153 141 148 141 136 118 109 116 108 96 90 86 87 82 76
64 319 55 42 120 133 219 62 211 87 49 99 107 218 106 98 258 222 144 187 187 148 143 129 124 129 125 111 104 87 97 93 93 91 92 88 69 55 42 40 44 22 12 17 357 345 334 335 328 320 307 300 289 303 292 31 72 73 73 75 91 77 79 98 76 66 63 57 43 37 64 107 123 106 206 124 115 186 154 143 147 142 160 156 172 142 124 124 126 121 112 118 94 78 72 70 73
106 188 4 9 69 139 155 149 147 97 119 214 209 85 168 120 242 286 109 328 139 127 126 126 123 107 97 91 93 109 107 108 101 96 93 92 89 73 63 43 33 22 37 19 355 331 335 324 315 310 299 283 273 283 341 66 73 75 72 79 79 84 79 70 78 77 70 63 53 43 43 49 101 94 50 125 114 103 150 127 105 113 98 83 99 115 120 130 121 95 98 89 74 58 61 32 58
84 25 339 287 55 170 146 147 145 139 237 206 66 202 230 168 194 55 171 157 145 136 129 130 113 99 90 103 107 96 86 91 99 91 75 77 79 65 47 38 19 23 30 19 349 340 331 320 310 317 308 293 266 48 80 82 80 78 76 77 77 82 80 75 73 83 72 64 54 47 41 54 45 70 68 55 84 56 40 96 115 96 115 110 102 114 111 106 82 85 81 71 70 66 57 35 50
50 171 39 349 320 152 172 149 175 185 220 222 25 251 272 241 178 237 171 173 160 141 128 134 113 102 102 108 113 105 92 90 97 88 84 78 73 64 39 35 20 30 21 9 351 341 330 322 332 343 3 46 74 86 81 80 77 84 75 77 78 73 78 78 73 69 72 62 54 46 45 56 56 57 68 69 70 62 62 49 49 54 52 45 64 61 51 83 93 72 66 70 73 64 54 61 74
159 86 30 299 269 292 203 176 211 198 202 183 190 246 258 282 153 266 165 166 155 133 145 137 121 125 122 111 103 102 96 87 101 114 81 66 63 68 51 40 27 23 12 9 351 344 320 342 0 15 36 49 73 81 82 81 81 79 75 78 76 74 74 73 66 64 65 59 53 50 54 56 66 58 57 67 69 66 60 55 53 49 48 37 56 72 63 74 69 70 72 73 61 64 47 9 57
71 86 0 316 288 276 240 220 215 142 274 187 174 232 250 323 155 230 166 173 158 144 157 139 131 133 129 121 109 109 95 96 89 91 101 90 88 93 64 46 16 23 13 359 349 327 353 14 15 25 48 59 74 77 80 78 78 79 71 73 72 69 70 65 62 55 56 57 44 44 50 55 63 67 60 60 66 67 65 60 52 50 40 28 35 58 56 46 49 40 30 22 39 47 20 20 24
194 77 322 288 330 311 248 213 219 162 242 155 143 353 305 219 227 221 155 156 160 145 155 149 140 140 135 126 118 108 118 107 95 93 116 123 118 116 90 63 45 27 15 353 345 355 14 11 28 30 39 70 73 75 80 78 76 78 75 66 70 68 69 69 57 52 58 54 50 48 49 56 62 69 67 67 69 63 61 63 56 51 43 38 44 53 58 52 50 44 36 41 39 41 36 21 27
55 33 174 342 360 316 260 217 185 156 221 143 123 282 265 242 227 153 151 154 145 140 159 156 151 146 146 138 130 116 106 97 93 117 121 108 93 79 72 62 44 48 13 0 5 27 24 24 38 46 39 68 66 67 78 78 73 78 76 70 66 72 70 67 59 53 57 57 55 49 52 53 58 62 69 71 68 69 64 61 62 53 43 43 51 49 53 47 49 48 41 49 38 40 35 21 28
165 253 74 191 17 277 294 196 175 158 164 150 101 192 276 277 231 182 173 162 156 161 173 168 162 162 153 147 132 120 118 125 128 106 87 93 90 73 82 65 54 34 33 26 31 31 51 46 44 63 40 72 69 66 76 78 72 80 76 68 69 69 69 70 65 59 59 59 60 56 56 57 60 61 62 70 67 67 66 62 55 56 55 48 56 51 65 59 54 50 39 46 43 35 28 33 30
191 41 299 321 170 279 302 51 161 172 196 142 99 275 244 265 221 196 187 171 158 165 178 176 171 167 162 152 142 130 125 116 109 108 109 107 103 101 88 88 62 42 43 29 55 58 64 61 57 82 62 77 76 74 77 83 79 78 82 77 70 63 73 71 63 61 61 60 60 65 66 65 63 63 68 71 74 64 65 64 53 49 51 56 56 54 59 62 60 56 45 44 44 28 23 20 20
357 137 266 271 155 252 342 268 247 146 118 251 177 203 307 295 203 192 195 179 178 171 187 185 178 174 165 157 152 144 128 113 100 109 115 107 106 102 99 93 73 54 51 44 65 79 76 76 64 82 85 80 86 84 85 78 81 85 80 78 76 69 70 65 62 59 59 56 52 57 57 66 66 67 68 66 74 70 65 66 58 56 55 59 56 56 57 58 67 65 51 43 51 44 32 22 18
313 163 213 217 206 274 251 301 258 164 138 202 246 232 232 235 187 190 197 188 185 192 193 189 183 175 173 160 153 156 149 140 139 133 127 124 125 121 112 92 94 76 54 64 78 84 84 88 82 78 87 91 91 89 86 89 89 85 81 75 73 71 67 66 61 60 61 57 57 55 53 56 61 64 66 68 73 69 67 66 59 52 55 58 59 59 59 57 63 65 61 44 39 41 32 24 10
206 200 261 295 276 210 225 153 259 128 205 175 223 241 261 262 238 211 199 192 196 206 196 190 180 173 171 164 163 163 155 147 162 150 133 125 116 115 105 111 102 84 83 78 76 101 100 102 101 90 87 96 103 98 96 97 94 87 84 81 75 71 68 66 64 65 61 59 58 55 57 58 57 64 66 67 73 71 68 61 58 50 55 60 61 57 51 50 58 59 64 49 42 47 43 23 4
200 170 183 181 200 282 233 231 255 170 190 222 196 217 240 245 236 229 229 206 203 218 188 189 184 175 171 171 168 162 153 152 166 135 125 120 129 126 127 128 105 102 101 91 75 90 110 100 110 113 109 110 108 109 114 107 97 94 96 90 79 71 72 71 65 65 59 61 59 57 57 61 57 61 65 68 71 72 71 66 67 57 56 63 64 59 49 45 47 55 51 49 37 36 37 23 18
230 232 192 214 215 277 274 250 247 160 101 223 226 231 243 255 220 217 212 195 217 219 213 197 192 181 178 175 172 157 154 159 173 141 131 137 134 142 148 127 118 106 96 100 87 78 99 116 117 110 121 125 120 117 109 109 110 107 90 89 92 86 83 82 73 62 62 61 61 61 58 60 60 62 60 65 70 71 69 67 66 60 57 62 65 64 61 57 50 50 53 43 43 41 26 17 12
230 242 257 277 200 255 241 227 197 296 174 288 247 250 251 250 236 226 204 181 212 209 212 207 196 189 181 172 168 159 151 134 139 130 140 129 131 148 132 123 125 118 113 110 110 93 92 96 104 103 94 92 95 102 112 97 75 93 112 105 103 90 86 83 81 68 68 65 61 61 61 59 63 63 62 67 68 69 72 67 63 61 60 65 70 65 57 52 47 43 36 58 36 59 46 16 7
240 224 243 257 263 243 291 14 25 296 154 258 281 271 258 261 260 221 190 200 214 209 203 200 187 185 180 177 166 148 151 159 157 160 154 157 150 147 125 123 122 123 129 125 123 108 96 87 89 93 89 95 94 95 99 101 98 90 100 108 106 98 70 80 85 83 77 74 63 61 60 60 63 62 60 62 68 66 71 73 66 64 57 59 64 55 52 49 45 44 39 65 57 41 66 31 29
215 236 205 230 237 222 284 291 292 246 162 227 275 277 277 278 263 248 213 204 220 220 218 217 196 181 182 183 171 162 161 162 169 169 168 162 154 150 134 135 133 133 130 125 125 114 107 107 105 99 94 90 95 95 99 92 94 96 86 99 88 92 106 88 82 75 72 71 62 60 55 62 63 67 61 65 70 66 66 68 67 61 57 53 65 68 57 54 45 43 44 42 56 67 35 36 29
244 191 190 193 227 225 193 257 274 320 321 17 307 293 272 227 256 259 236 226 17 30 124 187 212 207 176 147 155 167 168 166 163 168 168 165 157 162 153 149 134 133 133 139 137 123 118 119 115 111 110 109 107 115 113 115 109 99 101 92 94 91 75 81 83 66 65 73 77 58 54 60 66 68 64 64 67 67 64 65 68 66 65 57 64 69 65 60 57 53 50 56 46 79 59 45 28
259 227 193 208 185 223 266 17 80 13 329 256 169 315 275 249 236 247 278 106 215 243 182 203 190 173 160 171 174 172 166 167 166 172 173 170 162 155 149 143 133 130 126 125 119 117 120 119 117 113 112 115 118 117 120 121 120 123 123 117 108 100 91 82 85 99 86 75 78 82 64 59 66 67 62 63 64 66 66 65 69 72 69 65 64 72 70 61 49 52 40 60 57 40 90 58 39
206 268 200 207 210 219 227 213 75 281 247 286 127 214 281 306 243 238 217 186 218 239 218 210 189 180 181 178 174 174 168 165 162 160 163 163 165 152 151 147 142 131 123 117 112 115 115 121 120 122 124 122 125 126 122 117 105 101 104 106 108 114 113 88 98 91 96 92 88 75 71 59 57 68 62 66 68 70 73 70 72 73 72 69 64 68 64 62 59 54 46 54 54 53 55 72 54
237 242 165 189 208 214 219 214 207 241 230 295 46 126 277 286 234 236 199 197 221 225 228 216 206 195 193 184 178 174 172 167 164 168 168 167 162 158 154 145 141 134 123 113 113 116 123 127 122 119 122 121 118 115 100 111 112 111 109 105 105 108 110 120 115 103 93 96 83 76 73 67 62 65 74 68 69 70 75 72 72 71 71 64 69 69 71 65 67 56 59 62 63 57 61 78 73
214 247 161 142 182 203 170 180 195 221 19 290 191 53 309 252 293 266 167 213 242 236 224 217 209 201 195 188 183 177 173 168 162 163 168 166 163 155 143 138 136 123 126 127 128 128 121 116 109 108 108 112 114 112 110 102 110 117 117 119 109 106 113 114 113 104 99 95 90 81 79 75 71 65 67 75 71 74 73 79 76 76 75 72 73 76 71 69 69 68 57 56 60 57 59 73 77
261 152 87 77 77 72 97 111 96 330 312 250 181 165 217 277 187 114 295 235 239 233 226 220 206 198 192 190 187 175 162 157 159 157 157 156 153 141 136 127 124 128 127 122 122 122 121 117 109 108 107 111 117 115 115 114 115 122 121 125 124 125 123 115 110 110 105 102 97 92 87 82 80 77 70 71 77 75 79 80 82 82 84 82 77 79 78 70 67 68 69 72 67 69 54 64 79
130 78 65 21 34 33 6 67 88 17 255 243 179 195 165 278 195 178 155 217 213 230 246 232 195 199 202 197 182 174 162 155 154 149 149 147 144 136 137 136 137 130 131 130 128 129 130 121 118 109 116 115 119 123 124 126 125 128 129 134 133 132 133 128 124 115 115 110 109 106 102 99 89 88 86 77 79 85 85 81 83 80 79 78 79 76 77 83 78 80 77 73 68 72 68 69 65
129 106 116 55 343 15 33 350 69 197 263 191 184 189 175 226 293 266 223 286 317 218 229 207 190 196 196 187 178 170 161 157 153 149 150 145 140 140 139 141 146 144 138 135 135 132 132 129 122 116 117 122 124 127 126 129 131 132 132 137 136 138 138 137 134 134 136 129 126 121 118 105 96 91 88 90 79 79 84 79 78 80 75 78 77 86 83 86 88 83 74 72 71 71 68 70 72
88 96 88 139 239 46 324 58 239 204 242 250 200 175 274 238 249 258 271 274 265 218 216 212 198 196 179 169 166 166 163 160 160 157 152 156 157 155 153 151 148 152 153 149 147 141 138 135 133 127 130 133 133 135 133 134 136 141 143 142 140 139 137 136 136 133 142 135 136 130 126 118 120 102 94 94 88 87 90 89 82 82 82 77 88 83 81 82 83 80 82 78 73 65 69 73 72
129 142 154 137 193 209 256 223 240 282 301 247 168 180 236 321 287 238 248 253 263 279 277 232 195 181 172 168 162 161 165 165 162 159 162 164 162 160 157 157 157 156 156 156 153 148 146 142 140 132 139 138 137 136 138 138 143 147 147 147 144 142 139 138 138 138 140 133 134 130 131 131 125 122 120 110 119 104 91 95 97 91 91 90 86 84 83 82 86 88 83 78 71 70 69 76 79
201 114 151 188 159 159 226 187 210 222 226 291 288 114 235 128 235 250 242 278 292 296 285 157 141 154 153 147 141 145 156 166 164 168 172 170 167 165 163 162 162 161 161 159 157 153 147 145 143 140 138 145 142 144 141 141 144 143 142 140 137 135 136 133 133 134 135 131 129 126 124 124 121 128 121 129 116 104 102 98 97 96 91 86 81 80 78 80 83 88 82 81 74 65 63 67 64
229 173 58 98 216 143 231 187 191 269 332 315 209 205 187 193 238 266 269 306 12 355 32 106 113 124 132 143 158 165 167 167 169 170 172 173 168 163 160 163 164 166 166 163 160 157 152 151 147 147 144 150 148 145 146 145 144 139 139 136 135 130 126 121 119 117 117 123 130 128 128 124 125 123 121 117 112 110 112 105 96 94 93 87 82 84 83 83 86 88 85 78 70 54 62 58 46
215 111 203 208 145 169 276 354 236 101 13 254 155 275 288 300 275 224 160 46 345 17 70 113 136 143 147 160 167 172 174 171 173 174 172 171 168 169 168 166 165 168 169 169 167 164 157 153 151 149 147 149 150 150 147 144 140 137 136 132 133 131 133 135 135 131 127 123 121 122 125 131 127 125 124 119 118 111 108 107 103 98 90 87 83 78 81 82 80 81 89 83 70 55 65 57 50
99 190 223 82 55 102 149 235 359 188 243 268 149 232 265 114 275 39 57 150 262 245 183 180 159 159 166 175 177 179 178 174 167 167 172 175 173 169 167 170 170 172 168 165 164 160 156 154 154 150 153 154 157 151 149 149 145 139 138 135 133 135 134 132 132 131 130 125 122 123 128 129 136 137 128 124 119 117 111 109 108 102 96 87 85 77 73 72 80 82 94 89 94 74 56 38 41
161 193 210 142 244 249 245 106 249 212 238 284 244 218 247 188 239 93 231 220 217 220 206 176 188 189 184 177 179 172 160 160 169 173 174 177 177 175 170 168 166 164 164 161 153 151 151 151 154 155 156 157 155 150 145 144 144 142 143 141 139 135 134 131 129 128 130 131 137 142 141 140 131 131 128 127 122 122 122 116 112 105 96 89 79 75 72 68 76 83 74 78 64 68 65 41 19
47 77 165 178 101 152 143 199 181 121 245 151 286 86 254 179 220 179 208 207 207 194 197 207 199 192 183 181 177 175 177 177 175 176 180 179 176 171 168 166 167 166 164 162 155 151 154 154 153 154 150 149 149 151 152 148 147 141 137 132 132 136 137 137 139 138 138 142 146 144 143 140 146 137 134 131 130 136 133 122 113 111 102 96 87 72 73 75 77 82 78 64 55 77 59 47 14
171 119 198 199 123 257 117 299 169 173 190 206 272 285 261 250 204 187 203 202 203 187 200 205 200 196 193 183 178 179 179 177 178 179 178 176 173 167 164 163 159 154 156 156 161 163 159 156 161 163 160 159 160 159 153 151 144 145 143 145 146 144 142 138 136 140 139 145 146 144 147 146 132 137 139 137 140 141 132 123 119 115 114 112 103 90 82 84 76 72 63 76 54 63 64 33 43
183 170 192 181 157 166 178 251 105 182 152 240 159 259 263 251 70 243 223 223 205 202 198 198 197 190 188 184 184 179 178 182 180 178 176 171 166 161 154 152 153 156 163 165 163 157 161 167 168 163 160 164 161 163 157 151 147 148 149 148 149 145 143 141 140 144 145 148 151 149 148 140 138 146 144 147 145 141 127 124 121 118 116 115 117 110 98 82 82 69 56 66 59 55 55 39 46